Location: Tel Aviv
(32.0670°N, 34.7670°E)
Time: 19:24:59
(UTC+03:00)

Vanguard 2 Rocket - Pass Details

Date: 23 January 2022
Orbit: 553 x 3323 km, 32.9° (Epoch: 24 May)

Event Time Altitude Azimuth Distance (km) Brightness Sun altitude
Exits shadow 03:08:51 78° 247° (WSW) 3,240 9.2 -44.5°
Maximum altitude 03:10:52 88° 168° (SSE) 3,243 9.3 -44.1°
Drops below altitude 10° 03:31:20 10° 82° (E) 6,032 11.7 -39.7°
Sets 03:35:35 0° 82° (E) 6,852 12.3 -38.8°
